Theta_e
333 331 330 329 330 330 332 333 333 332 331 330 328 326 323 320 315 313 315 314 319 323 327 325 325 332 332 332 333 335 336 337 341 337 340 335 332 335 337 338 336 337 337 337 337 338 338 338 338 340 340 340 340 340 340 340 340 339 339 338 338 337 338 337 337 337 337 336 336 336 336 336 338 339
332 333 332 330 330 332 332 331 332 332 331 330 330 328 327 324 320 317 315 314 318 321 324 326 324 332 333 335 335 334 334 340 343 337 335 335 333 334 335 337 337 336 336 335 335 336 336 337 338 337 337 337 338 339 340 340 339 339 339 339 338 338 338 337 336 337 337 337 337 336 336 336 336 337
333 332 330 331 330 332 331 330 333 333 332 330 330 330 329 327 324 321 317 314 318 325 323 325 329 328 328 330 331 333 334 338 339 336 334 333 336 338 336 336 335 335 335 334 334 333 332 333 334 334 334 335 336 337 338 339 339 339 338 339 339 339 339 338 337 337 337 337 337 336 336 335 336 336
333 332 331 331 331 332 331 331 332 333 333 332 331 331 331 329 327 326 321 319 319 324 324 323 326 329 329 329 328 328 330 334 344 337 335 335 340 337 335 337 335 333 332 332 332 330 329 330 331 332 333 334 336 337 337 336 336 336 337 336 337 338 338 337 336 336 336 336 336 335 335 335 335 335
333 333 331 331 332 333 330 329 331 333 332 333 332 333 331 330 328 327 324 322 323 324 326 328 329 329 330 328 327 328 328 330 330 337 335 334 332 332 332 332 335 334 333 331 331 330 330 330 331 331 333 333 335 336 337 336 335 334 334 334 333 333 335 334 333 334 335 335 335 335 335 335 335 334
333 332 331 331 331 332 330 329 330 332 331 331 330 330 332 330 330 330 327 325 324 322 321 324 327 328 330 328 327 328 329 328 331 330 331 332 332 331 331 330 331 335 333 331 330 330 330 329 330 330 331 332 333 334 334 334 332 332 332 331 331 331 329 329 330 332 332 333 334 335 336 336 336 335
333 332 331 330 331 332 330 330 330 332 331 331 330 329 331 329 330 330 329 325 323 322 322 323 324 326 328 329 329 329 330 331 331 329 330 331 332 334 332 331 331 334 333 331 330 329 329 329 329 329 329 330 329 330 329 328 329 328 327 327 329 329 328 328 329 330 331 332 332 334 334 334 334 334
333 332 331 330 330 332 330 329 330 331 331 330 329 328 329 329 328 329 329 327 325 324 323 322 325 326 325 327 329 331 331 330 330 330 331 330 330 331 332 332 331 333 332 331 330 329 329 328 328 326 326 326 325 324 323 323 324 324 324 324 325 325 325 325 325 328 328 328 329 331 331 332 332 331
333 332 331 331 331 332 331 329 330 330 330 329 328 328 328 329 329 329 330 328 326 323 322 323 325 327 327 328 328 329 329 329 329 329 329 330 329 328 329 331 333 334 332 332 331 329 329 328 328 327 326 326 324 323 323 322 321 321 321 321 322 322 323 323 322 323 323 323 324 324 325 327 328 329
333 332 332 331 332 332 331 330 330 330 330 329 328 328 327 329 329 328 328 328 327 325 324 324 324 323 326 326 327 329 330 328 328 327 327 325 325 326 326 327 330 332 333 332 332 331 330 329 328 327 327 326 324 324 323 322 321 320 318 316 315 317 319 319 321 321 320 321 322 323 324 325 326 326
334 333 333 332 331 332 332 331 331 330 330 330 329 329 327 328 327 327 327 327 326 326 325 325 325 325 326 326 325 326 327 328 327 325 324 323 323 322 324 325 328 329 331 332 333 332 331 330 329 323 323 324 324 324 323 322 321 320 318 316 315 315 314 315 316 317 317 318 319 319 318 319 322 324
335 334 334 334 333 332 332 332 331 331 331 330 329 329 329 328 327 326 326 326 325 325 325 325 325 324 325 323 325 325 323 322 321 324 324 322 320 322 320 322 323 324 326 326 327 330 330 328 327 324 324 325 326 324 324 325 326 324 320 318 319 319 317 316 317 317 316 315 315 315 316 316 318 319
336 335 335 335 334 336 340 341 339 337 337 331 330 330 330 329 328 327 326 326 325 324 324 324 324 323 323 324 323 323 321 321 322 321 322 320 320 320 322 323 324 326 325 325 326 326 327 326 325 325 325 326 328 327 328 328 329 327 321 320 321 321 320 318 317 317 317 316 316 314 314 315 316 318
335 335 335 337 342 343 345 345 344 341 340 339 335 332 330 330 329 327 326 326 326 325 323 323 323 322 322 323 323 323 323 323 321 320 319 318 320 317 319 320 322 325 323 322 321 322 324 324 323 322 321 323 325 323 322 321 322 323 321 320 320 320 319 318 317 317 317 316 315 314 313 314 316 316
335 335 335 335 340 344 345 343 346 344 342 341 340 337 335 335 331 328 327 326 326 325 324 323 322 322 322 323 324 322 323 322 322 322 319 320 318 317 316 315 319 321 324 320 316 319 319 320 319 319 320 320 321 321 320 323 324 321 321 320 320 320 319 319 319 318 317 315 315 314 313 314 315 315
335 334 334 334 335 336 338 338 341 345 344 339 339 337 334 333 335 333 330 328 325 324 324 323 323 323 323 323 322 321 321 322 321 321 320 320 319 317 315 313 315 318 322 316 314 316 319 318 318 317 318 320 320 321 321 322 322 321 320 320 320 320 319 319 320 320 319 318 318 318 317 317 317 316
334 334 334 334 334 335 342 342 338 338 341 341 335 336 334 333 330 327 327 328 330 327 325 324 324 324 323 322 323 324 322 321 320 318 318 319 318 318 317 316 316 320 320 316 313 313 316 315 317 316 318 319 320 321 322 321 321 320 319 319 319 319 319 319 319 319 318 317 316 316 316 315 315 315
334 334 333 332 333 334 336 337 337 336 336 336 332 328 327 329 333 332 329 326 325 327 329 327 326 327 325 324 324 326 324 321 321 319 319 319 318 318 318 319 318 319 319 315 312 311 315 317 316 315 317 319 318 319 320 320 319 319 318 317 317 316 316 315 316 315 315 315 315 314 312 312 311 311
335 334 334 333 333 334 334 336 338 336 330 330 330 329 328 329 333 333 335 335 332 330 329 329 328 329 328 327 326 325 324 325 325 324 323 322 321 317 313 314 315 316 318 316 314 310 314 314 313 315 315 317 315 314 315 317 317 316 314 314 314 314 313 313 314 313 313 313 313 312 311 311 310 310
336 336 335 334 334 335 334 335 332 331 330 328 328 328 329 329 330 331 334 330 332 335 331 329 330 330 330 327 328 328 327 325 325 326 320 315 314 312 311 311 313 314 317 316 314 310 310 311 311 310 311 309 307 308 309 312 313 313 313 313 313 312 311 311 312 312 313 313 313 313 312 310 309 308
335 336 336 335 335 332 329 327 324 329 334 330 328 327 328 328 329 330 333 329 325 325 324 322 322 321 320 319 318 316 315 321 320 315 312 312 313 310 308 311 310 311 314 315 315 312 309 308 306 306 306 307 307 307 308 309 312 312 311 311 312 311 311 311 311 312 313 313 313 314 314 312 311 311
335 337 344 341 334 332 330 322 324 327 331 329 330 329 328 328 328 328 330 333 332 324 320 319 318 317 318 318 316 315 314 313 315 314 312 314 313 312 311 309 310 312 315 316 312 306 304 305 304 304 304 308 306 308 307 309 311 314 311 311 311 311 311 311 311 312 313 313 313 313 312 311 311 315
331 334 342 341 334 331 325 319 322 325 330 330 331 329 327 325 324 324 326 325 325 323 323 321 323 323 322 323 321 324 321 318 319 316 316 315 313 310 310 311 310 309 308 313 311 306 304 304 304 303 302 301 304 308 310 311 311 312 314 314 315 314 314 314 312 311 311 312 312 313 311 310 311 315
328 329 329 331 321 319 319 318 318 319 323 329 326 323 323 321 321 321 320 324 323 321 320 318 320 320 320 319 319 320 320 322 324 317 318 316 315 313 311 313 313 309 304 305 312 306 303 304 304 304 304 302 300 304 309 309 310 312 313 313 314 316 318 317 315 313 311 311 311 312 311 310 311 314
329 327 325 326 319 316 316 315 315 315 316 321 320 321 322 323 322 319 320 324 327 317 319 319 318 318 318 317 316 316 315 319 318 318 316 318 316 314 312 309 308 307 308 310 315 307 304 304 304 304 305 304 304 305 306 308 309 311 314 314 314 316 317 317 318 319 315 313 311 310 309 310 310 312
326 327 326 326 320 314 313 313 311 310 311 314 318 320 317 314 316 321 321 319 317 316 316 315 315 315 314 313 315 316 317 319 320 315 312 312 312 313 311 308 306 305 306 310 314 308 305 305 306 306 305 302 304 306 304 305 308 310 313 314 315 316 317 318 318 318 318 318 319 315 316 313 313 312
327 329 329 328 317 312 309 307 307 308 308 313 316 311 306 308 315 323 317 317 314 314 313 314 314 313 314 314 313 313 314 314 313 314 312 311 311 313 315 313 310 308 310 310 314 313 309 305 308 306 305 304 303 304 304 303 305 310 312 314 315 316 318 317 317 317 318 318 319 314 312 311 311 312
330 330 329 325 312 307 303 304 306 307 309 317 308 304 308 311 317 317 315 312 313 315 313 312 311 312 312 311 311 313 316 314 312 311 311 311 310 310 311 311 314 315 313 312 312 311 309 308 309 309 306 303 302 301 301 306 309 310 310 314 316 316 317 317 316 319 320 319 318 318 317 316 317 317
330 321 314 312 309 307 304 305 306 307 307 309 306 305 309 320 314 314 311 311 311 310 310 311 313 312 314 314 314 314 311 314 314 312 311 311 311 312 311 311 314 314 315 316 313 311 309 307 305 305 304 303 303 304 305 305 307 309 312 313 312 314 316 317 317 316 318 317 316 316 315 316 315 317
316 313 313 312 310 309 310 313 315 316 316 311 309 308 312 314 311 311 311 310 311 311 310 312 312 314 313 311 311 311 312 310 308 308 309 308 309 308 307 306 307 307 307 308 309 308 307 306 305 305 304 305 306 305 306 307 308 310 312 312 313 316 317 316 316 316 317 316 316 315 316 316 316 316
316 314 315 315 312 313 313 317 318 319 317 312 311 311 313 311 311 312 312 311 311 312 311 312 313 312 312 312 312 310 307 308 307 307 310 307 306 308 305 304 304 304 305 305 307 308 308 307 307 306 304 305 308 308 309 308 307 308 310 312 313 310 313 315 316 315 315 315 315 315 315 315 315 317
319 317 313 311 315 315 315 316 316 314 314 312 311 309 309 311 313 315 318 319 312 311 311 311 311 312 311 309 307 308 307 306 307 308 308 307 304 306 305 301 301 302 303 304 306 309 315 311 309 308 308 308 306 306 306 306 306 308 310 313 314 314 315 314 314 314 315 314 313 312 313 313 313 313
317 315 315 315 314 314 314 313 312 311 312 312 312 312 311 311 311 312 311 312 313 312 312 311 311 312 310 308 307 308 305 306 305 304 303 305 303 304 301 301 302 301 301 302 305 305 305 305 308 307 306 306 306 306 305 305 309 310 310 311 312 312 313 314 314 314 314 313 311 311 310 311 312 312
315 315 315 315 314 313 312 311 311 312 312 314 313 313 314 313 311 312 312 311 312 312 312 313 310 310 308 304 304 304 305 304 303 304 306 303 303 301 300 300 300 301 304 302 302 303 303 303 304 304 305 307 309 308 309 309 309 311 311 311 312 311 313 314 314 314 313 310 309 307 307 308 310 311
316 315 315 314 313 314 313 313 312 313 313 314 314 314 313 313 314 313 312 313 312 312 312 308 306 306 305 304 303 302 304 304 303 302 302 302 302 300 302 299 300 301 302 302 301 301 302 302 302 301 302 304 307 308 316 314 310 310 311 311 311 311 312 314 313 312 310 309 308 306 306 306 307 309
315 315 315 313 314 314 314 315 315 314 314 314 314 314 312 313 313 314 313 310 310 308 307 306 307 306 304 302 302 302 302 304 301 299 300 300 300 301 301 301 303 302 300 299 300 301 301 302 301 300 299 301 301 301 303 316 318 312 310 310 311 312 312 313 312 310 308 306 307 306 304 304 305 307
316 314 315 314 314 315 314 315 314 315 315 315 315 314 314 314 311 313 308 307 307 308 306 307 306 305 304 303 302 302 301 299 298 300 300 299 299 299 298 300 301 300 299 299 301 301 302 300 301 299 299 299 299 298 301 306 310 314 312 310 310 311 312 311 308 306 306 306 305 306 305 305 304 306
316 315 315 315 314 313 313 311 312 310 310 311 310 310 309 308 308 308 307 305 305 306 306 304 305 305 302 302 297 298 298 299 300 299 300 298 297 297 297 297 298 298 298 300 302 302 301 299 299 300 300 299 297 298 298 303 306 309 311 311 310 312 312 308 305 303 304 305 305 306 306 304 304 306
316 316 315 313 312 311 311 311 311 310 309 309 309 308 308 307 305 304 304 304 304 304 304 305 303 303 302 298 299 299 298 298 297 298 298 297 298 297 297 297 298 298 298 299 300 299 299 298 299 299 299 298 298 299 301 302 305 311 312 309 310 310 308 306 304 304 304 304 304 306 306 307 307 309
315 315 313 312 310 310 311 311 309 309 309 308 307 306 306 306 305 305 304 305 304 306 304 302 302 300 297 298 298 297 299 299 298 296 297 298 299 299 298 299 299 299 298 298 299 299 298 299 301 300 301 302 303 305 306 308 310 311 312 311 307 307 307 305 304 304 304 304 305 303 301 302 300 302
313 312 311 312 311 311 310 309 309 309 308 307 307 308 305 304 303 303 303 304 307 303 301 300 298 297 297 297 297 298 298 298 296 298 299 298 299 300 302 302 298 298 297 297 297 297 298 300 304 309 310 306 306 308 305 303 303 305 306 309 306 305 305 307 305 304 303 305 304 302 300 298 298 299
313 311 310 310 310 309 309 308 307 307 307 307 307 306 304 304 303 309 306 309 303 301 299 299 298 300 299 298 298 300 296 296 296 297 299 297 296 297 300 299 296 297 296 297 297 298 300 302 305 304 302 303 306 305 303 303 302 304 305 307 308 307 306 306 306 307 306 304 303 300 299 298 299 297
313 311 312 311 310 310 309 309 307 307 306 306 305 305 304 303 302 303 299 299 299 301 299 300 298 298 298 297 297 297 296 296 297 296 296 297 297 296 296 296 297 298 297 298 298 299 300 301 301 301 300 302 304 306 302 303 304 304 305 306 306 306 305 307 307 307 307 307 306 304 302 299 296 293
312 312 312 311 310 309 308 308 307 306 307 306 306 304 303 301 301 299 298 297 297 296 297 298 298 297 296 297 297 296 297 298 297 297 298 298 298 297 297 298 299 298 298 298 298 298 299 300 300 300 300 303 304 305 304 304 304 306 306 305 304 302 302 304 305 306 306 306 306 305 305 304 303 302
313 313 311 310 310 309 308 308 308 307 306 305 304 303 303 301 301 300 298 297 297 298 300 298 298 297 296 298 295 297 298 302 299 298 298 298 297 298 298 298 298 298 298 296 296 297 298 298 298 299 302 304 304 304 307 307 307 306 305 303 301 301 301 303 302 301 301 301 303 304 304 304 303 302
Wind_Speed
5 4 6 7 6 5 3 3 4 5 4 5 6 6 7 6 5 3 2 3 3 2 2 1 1 1 2 2 1 2 4 6 6 4 5 6 6 9 14 14 14 14 14 14 14 13 13 13 13 14 14 14 14 13 13 13 13 12 12 12 12 12 13 12 12 12 12 12 12 13 13 13 13 13
5 5 6 5 5 5 4 5 4 5 6 6 6 6 5 7 7 5 5 5 4 3 2 3 1 0 2 2 3 3 4 7 6 4 5 6 6 10 12 13 14 14 14 14 13 13 13 13 13 13 13 13 14 15 15 15 15 13 12 12 14 15 15 14 14 13 13 13 13 13 13 14 14 14
6 6 6 5 5 5 6 5 4 3 5 6 5 5 5 5 6 6 4 2 3 3 3 2 2 1 1 2 2 3 3 5 6 5 5 6 9 12 9 11 13 14 15 14 14 13 12 12 13 13 13 13 13 14 15 15 15 14 14 13 13 14 15 15 14 13 13 14 14 13 14 13 13 14
6 6 6 6 6 5 5 5 6 6 5 5 6 5 6 5 5 6 5 5 5 4 4 4 4 4 4 3 3 4 4 5 7 5 6 7 10 8 7 10 11 10 12 14 14 13 13 12 12 13 13 14 14 15 15 15 14 14 14 15 15 15 15 15 15 15 14 14 14 14 14 14 14 15
6 7 7 6 6 6 7 6 6 6 7 5 6 6 6 6 5 6 5 6 6 4 4 4 4 3 0 2 2 4 4 5 5 4 5 5 5 6 6 7 10 12 12 12 11 11 11 12 13 13 13 14 15 15 16 16 15 15 15 14 15 15 16 17 17 17 16 15 15 15 14 15 15 15
7 6 7 6 5 5 7 6 7 7 7 6 6 6 7 7 7 6 7 7 6 6 2 2 3 3 1 3 2 4 5 6 4 6 6 4 4 5 6 6 6 11 13 14 14 13 12 10 12 13 14 15 16 16 16 16 16 15 15 15 15 16 16 16 17 17 17 17 14 13 13 13 14 15
7 7 7 7 5 4 6 6 7 6 8 7 8 7 6 7 7 7 6 5 5 5 6 3 3 4 3 5 6 5 5 5 5 5 6 6 5 4 5 6 6 9 12 13 14 14 15 15 14 12 11 12 14 15 16 16 15 15 15 15 16 16 16 16 17 17 17 18 18 14 14 16 16 15
8 8 6 7 7 6 7 6 6 6 6 7 7 7 6 7 7 6 6 6 6 5 6 4 5 4 3 5 5 5 4 5 5 5 6 4 5 6 6 6 6 8 13 14 14 15 15 15 14 14 14 14 14 13 13 13 13 13 14 15 16 17 17 17 17 17 17 17 17 17 17 16 16 15
6 7 8 7 6 7 8 7 7 6 7 7 6 6 5 6 6 5 6 7 5 5 6 5 3 3 4 5 4 3 5 6 5 4 5 6 5 5 6 5 6 9 13 13 14 14 15 15 14 14 14 14 15 15 15 13 13 13 14 15 16 16 16 16 16 16 16 16 16 17 18 18 17 16
7 7 8 7 8 8 9 8 7 6 7 6 6 5 4 5 5 6 6 6 6 6 7 5 5 3 6 5 5 4 5 6 6 5 5 4 4 4 6 6 5 4 4 4 6 8 10 11 13 14 13 13 13 13 13 14 14 14 13 13 14 14 14 14 14 14 14 15 16 16 17 17 17 17
8 8 8 8 8 9 9 8 8 7 6 6 6 6 6 5 4 5 5 5 5 6 6 5 6 6 5 5 6 4 4 5 5 5 5 5 3 3 5 6 4 2 4 5 8 8 8 9 8 11 13 13 13 13 13 14 14 14 14 13 13 13 13 13 13 14 15 15 15 15 16 16 17 18
9 9 8 8 9 9 8 8 6 6 7 5 5 6 6 6 5 5 5 4 5 5 5 7 7 5 5 3 4 2 0 2 3 4 5 6 5 6 3 4 3 2 2 5 6 6 6 6 7 8 8 9 10 11 10 10 11 11 12 12 13 13 13 13 13 14 14 14 14 15 15 16 17 17
9 8 8 9 9 9 11 11 8 8 8 7 8 7 7 6 6 5 4 5 5 6 5 6 4 5 6 6 5 6 5 5 7 3 3 4 4 4 5 6 3 4 4 4 5 5 3 4 5 5 6 6 8 9 11 10 13 13 13 13 13 13 13 13 13 14 14 14 14 14 14 14 13 14
8 8 8 8 12 14 14 13 13 13 14 14 10 8 7 8 6 6 5 6 6 5 5 6 7 6 7 7 6 6 5 4 2 3 2 4 5 2 4 6 5 2 3 3 6 7 3 1 5 6 7 7 7 7 7 7 10 12 14 14 14 14 14 14 15 15 14 14 13 13 13 14 15 16
9 8 7 7 10 12 12 11 15 15 15 15 14 12 12 12 11 8 7 6 5 6 6 5 4 6 8 8 5 5 5 3 4 5 3 6 4 4 4 7 6 2 5 4 3 6 3 1 5 7 7 8 8 7 8 12 14 14 15 15 16 15 14 14 14 14 14 13 14 14 14 14 15 16
8 8 8 8 6 6 7 7 9 13 15 16 16 15 13 14 15 13 9 7 4 2 4 6 7 6 7 7 4 5 3 6 5 5 4 5 5 5 5 4 5 4 1 1 3 8 6 1 4 6 8 8 7 9 11 14 14 15 15 15 15 15 15 15 14 13 13 13 14 14 15 15 15 16
8 7 7 7 6 6 11 10 7 7 9 13 15 12 7 1 6 11 6 4 3 3 5 6 8 7 4 5 6 3 3 2 4 4 4 4 5 5 6 6 6 8 1 1 3 6 7 2 4 6 8 7 7 8 9 12 13 12 12 13 13 13 13 13 13 13 14 13 13 13 14 14 15 15
8 8 8 7 6 6 6 7 8 8 9 6 4 9 8 4 4 4 5 6 8 7 6 6 8 7 3 7 6 6 3 3 5 4 6 5 5 6 7 7 6 6 1 3 2 4 8 6 5 6 8 6 6 7 9 12 12 12 12 12 12 12 13 13 14 14 15 15 14 14 15 15 15 15
9 8 8 6 7 6 6 7 9 6 4 8 7 7 4 1 4 4 4 5 4 4 5 6 7 8 6 7 7 6 4 4 5 5 6 6 5 4 2 4 4 6 5 3 2 5 6 3 3 6 6 5 6 6 7 10 12 14 14 13 13 13 14 14 14 14 14 14 14 14 14 15 15 16
8 8 7 6 6 6 5 2 7 9 8 8 9 7 5 6 4 5 7 10 8 7 6 6 7 7 7 6 6 5 5 5 5 5 2 2 2 3 5 6 5 5 4 2 4 3 4 3 2 2 4 5 7 7 6 10 14 14 14 14 14 15 15 16 15 15 15 15 15 15 15 15 16 17
6 4 5 6 5 5 6 10 14 12 9 4 7 7 6 5 6 8 7 8 8 10 12 10 9 9 9 9 10 10 9 7 4 0 2 5 4 4 6 5 4 6 3 1 3 3 3 2 2 5 4 5 7 7 8 8 11 14 14 15 16 16 16 16 16 16 16 16 16 16 16 17 17 19
5 6 12 9 8 8 9 14 16 15 9 6 7 7 8 7 6 7 4 2 3 6 5 5 5 6 7 8 8 8 9 9 2 3 6 5 1 5 4 5 4 6 5 3 1 2 4 4 2 4 4 4 4 6 8 8 8 10 11 14 16 17 16 16 17 16 16 17 17 17 18 18 19 14
5 3 7 11 9 9 11 15 15 17 14 11 10 7 6 5 6 3 1 2 1 1 2 2 2 1 2 2 3 3 7 7 3 4 6 4 1 3 4 5 3 5 4 2 1 3 4 4 4 3 3 4 6 6 7 7 6 6 6 8 10 14 15 16 15 16 16 17 17 18 19 20 17 11
3 3 4 8 14 16 17 16 17 17 15 9 4 2 3 3 5 1 2 2 2 1 0 1 1 3 3 3 2 3 3 3 1 1 3 3 4 4 4 5 4 5 3 2 2 3 3 3 6 3 5 5 5 4 4 6 7 7 7 7 7 12 13 13 12 15 16 16 17 18 19 19 17 10
6 5 5 5 13 17 17 16 16 15 12 6 3 3 3 3 2 4 3 2 3 1 0 1 2 3 3 3 3 4 3 2 1 1 1 3 4 4 5 5 5 6 6 7 7 3 4 3 6 3 5 4 5 5 5 6 6 7 8 7 8 9 8 8 7 9 11 15 16 18 18 18 19 14
4 6 7 7 11 15 15 15 14 10 7 4 1 3 5 6 8 5 2 2 2 1 1 2 2 3 4 4 5 5 3 3 2 1 2 3 4 5 5 5 6 5 6 8 7 5 4 4 7 6 5 4 6 5 7 7 7 8 7 8 7 9 8 8 8 9 9 8 9 10 13 16 17 18
6 6 6 6 12 13 13 11 10 9 6 4 3 5 7 8 7 4 3 2 1 0 1 1 3 3 4 4 5 4 3 4 3 4 3 4 3 4 4 5 6 8 9 8 7 5 4 5 4 5 7 6 7 7 6 6 7 5 6 7 8 8 7 7 8 9 8 8 9 14 15 15 17 19
6 6 6 6 12 10 10 9 8 8 8 4 7 8 9 8 6 2 3 2 1 0 0 1 3 5 4 3 4 4 5 4 4 4 4 4 4 4 5 5 5 6 7 8 8 7 4 6 7 6 6 6 7 8 9 7 8 8 9 8 7 8 7 6 7 8 9 9 9 9 8 10 10 11
6 8 12 12 11 10 10 9 7 4 6 8 9 10 9 8 3 4 3 2 1 0 2 3 4 4 5 5 4 4 4 3 2 3 5 4 4 4 4 5 5 6 5 6 6 6 5 5 7 8 6 5 6 7 7 9 8 9 9 9 8 6 7 7 7 8 9 8 8 9 9 10 11 10
13 15 13 12 8 7 6 5 4 5 5 7 6 4 5 3 4 3 3 2 3 4 4 4 5 6 3 3 3 3 2 2 5 4 3 5 6 6 6 6 7 6 6 5 5 6 6 6 7 7 7 8 7 8 8 8 8 9 8 9 9 8 7 7 7 7 8 10 10 11 11 10 11 11
7 7 6 5 5 3 5 4 2 2 4 4 3 3 3 3 3 2 3 4 4 4 4 5 5 4 3 3 3 3 2 4 5 3 3 4 6 6 5 4 7 7 7 5 6 6 6 6 7 5 6 7 7 8 8 6 8 9 9 8 7 9 9 8 8 7 7 9 11 12 11 11 11 12
7 7 8 7 4 4 4 2 3 2 2 2 3 4 4 3 2 3 3 2 2 3 3 2 2 3 3 3 4 3 2 4 6 3 2 3 6 6 4 3 6 6 7 7 7 7 6 5 6 6 6 7 7 8 6 6 8 9 9 9 8 8 8 8 9 8 8 10 12 13 13 11 12 12
7 7 6 5 4 4 5 4 4 4 3 3 3 3 3 3 3 2 2 3 5 3 2 5 5 5 6 5 2 2 3 4 5 3 4 4 3 5 2 4 6 6 7 8 7 8 7 7 6 5 6 6 7 8 7 8 8 7 8 9 8 8 9 8 8 9 8 9 12 14 16 13 12 12
7 6 6 6 6 6 5 6 5 5 5 5 4 5 4 3 3 4 4 4 4 3 4 6 6 6 3 4 4 3 3 5 6 4 2 3 2 2 4 6 6 6 5 7 7 8 7 7 7 8 7 6 5 6 7 7 9 10 8 8 7 9 9 8 8 9 9 9 11 14 15 14 13 10
7 6 6 6 5 6 6 6 6 5 5 5 5 5 4 4 4 4 5 5 4 4 6 4 3 3 3 4 3 3 3 3 4 6 3 2 3 3 4 5 6 6 6 7 8 7 6 7 7 7 7 7 9 7 7 9 8 9 7 6 7 7 9 8 9 9 10 11 8 12 16 15 15 11
6 6 7 6 6 6 6 5 4 5 5 5 5 5 4 5 5 5 6 4 5 5 4 4 3 3 3 3 3 3 2 2 3 3 5 5 4 5 4 4 4 6 6 6 7 7 6 7 6 6 7 7 7 8 12 6 9 7 7 8 7 8 9 9 9 9 10 11 10 10 14 16 16 15
6 6 6 6 5 5 6 4 4 4 5 6 6 6 6 6 5 5 3 3 4 3 4 2 3 4 3 3 2 2 1 0 3 3 4 4 3 3 4 5 5 6 6 7 7 7 5 5 7 6 6 7 7 9 10 9 8 6 6 8 8 7 9 9 10 11 9 9 13 11 12 14 16 15
7 6 6 5 5 4 2 2 4 4 3 3 4 3 3 4 5 5 4 5 5 3 3 4 4 3 4 3 1 1 2 1 1 2 3 3 3 5 5 6 7 6 6 7 7 7 6 6 7 6 4 6 8 8 10 8 9 6 3 4 8 9 8 9 11 12 12 10 10 12 12 14 14 13
6 7 6 5 4 5 6 5 5 6 5 6 6 6 5 5 6 6 5 5 4 4 3 3 4 3 3 2 1 1 1 2 3 3 3 3 3 4 6 6 6 7 6 7 7 7 7 7 7 7 5 6 7 9 8 8 9 10 9 12 8 7 7 7 11 12 12 13 13 12 12 11 15 20
6 6 6 6 6 7 7 6 6 6 6 6 6 6 7 6 6 6 5 4 3 3 4 4 3 2 2 2 1 1 0 0 1 2 3 3 4 4 5 5 6 6 6 7 7 8 7 8 8 7 7 8 9 9 8 8 7 6 8 10 10 7 6 7 10 12 13 12 13 14 15 13 14 11
6 7 7 7 7 7 7 6 6 6 6 6 6 5 6 6 6 6 5 4 3 4 4 5 4 3 2 0 0 0 0 1 1 2 3 4 4 4 6 5 5 5 5 7 7 7 8 8 11 16 12 7 8 5 3 4 8 8 8 8 7 8 9 8 9 10 12 13 12 13 14 15 15 14
7 7 6 7 7 7 7 7 6 7 6 6 6 6 6 6 6 6 5 4 4 4 4 3 2 3 1 0 1 1 1 0 1 3 4 4 5 5 6 4 5 6 6 7 7 8 10 9 9 8 6 6 5 5 6 6 7 8 8 8 8 9 11 13 14 13 11 10 12 13 14 14 11 11
6 7 7 6 7 7 7 7 7 7 7 6 6 6 6 5 4 5 4 4 4 4 3 2 2 1 1 1 2 3 1 1 2 3 4 4 4 5 6 6 6 6 6 7 7 7 8 9 7 7 7 5 2 1 5 7 7 7 7 8 9 9 9 11 13 15 16 15 12 10 11 13 15 16
6 7 7 7 7 7 7 7 7 6 7 7 7 7 7 7 6 5 6 4 4 3 2 1 1 3 3 3 3 1 1 1 1 2 3 4 4 4 5 6 6 6 6 6 7 8 8 8 8 6 6 6 5 5 7 7 7 7 7 7 8 9 11 10 10 10 10 11 12 14 18 19 18 20
6 7 7 7 7 7 7 6 7 6 6 7 7 7 6 6 5 4 3 3 2 2 3 3 5 4 3 2 2 2 2 1 2 2 2 3 5 4 4 6 6 6 7 6 6 8 8 7 8 6 4 6 4 4 6 5 7 6 7 8 10 9 9 9 11 13 12 11 10 16 18 21 25 24
Wind_Direction
191 200 186 187 178 187 181 167 168 176 165 166 162 159 160 163 149 188 223 270 215 286 247 220 301 275 207 219 278 266 246 240 237 227 215 221 226 232 230 231 234 236 238 239 242 245 251 254 252 247 245 245 245 245 246 249 251 250 253 259 259 256 254 254 255 253 255 257 257 261 269 275 276 275
192 200 204 191 180 193 176 183 177 166 170 165 169 170 158 151 168 174 177 246 215 224 280 217 218 262 178 200 253 221 243 247 246 240 240 237 239 238 232 229 233 240 249 256 255 249 247 248 251 253 252 247 246 246 247 248 251 253 251 249 255 259 258 255 255 253 253 253 255 255 259 267 273 275
192 201 207 197 191 183 187 181 180 177 165 174 169 166 149 166 156 162 151 171 277 192 228 278 247 205 253 250 252 279 276 277 273 266 249 243 243 246 244 232 227 236 244 249 253 252 243 237 239 245 251 253 252 250 247 244 246 249 255 258 258 258 260 259 258 252 247 246 249 255 257 258 261 267
194 197 205 205 195 189 181 182 173 179 189 174 171 170 170 176 169 156 155 173 238 235 201 219 254 211 225 222 227 253 253 250 253 253 257 255 267 278 276 281 272 240 223 227 235 243 247 247 244 243 245 250 253 254 254 251 248 247 248 251 255 260 262 263 263 257 250 250 251 253 254 254 255 258
198 199 202 206 201 182 182 185 175 180 187 182 182 178 171 179 175 158 164 183 236 281 234 221 238 275 291 305 225 254 277 291 284 258 244 253 252 258 262 264 272 277 278 272 258 242 241 247 252 252 251 250 250 252 253 255 254 254 253 252 251 251 255 259 262 264 262 256 252 254 251 251 253 255
207 196 200 203 197 187 183 183 179 186 181 184 185 188 180 190 193 194 166 200 195 243 309 278 282 285 224 248 270 231 264 271 277 287 282 265 240 248 257 257 262 271 276 281 283 285 277 254 239 238 243 249 251 250 251 252 253 253 255 257 258 256 254 253 254 258 263 267 260 243 241 242 246 251
200 199 203 204 196 192 193 193 194 187 187 188 186 191 188 193 203 198 194 164 205 230 256 238 255 243 234 213 250 250 241 244 249 268 275 269 271 259 256 262 265 269 270 272 275 277 280 283 283 276 260 243 238 243 248 251 252 253 256 258 259 260 259 257 254 254 254 258 265 258 243 248 250 247
197 205 205 213 203 197 203 206 204 201 194 191 195 193 196 196 200 198 194 197 180 207 231 270 218 242 225 255 245 243 245 246 259 240 261 277 275 273 272 268 270 270 268 268 269 270 271 275 278 279 277 277 273 264 256 253 252 252 253 254 256 258 259 259 257 255 255 255 256 261 263 256 250 252
192 200 210 210 202 202 207 212 207 201 203 203 197 205 205 203 208 198 191 203 195 186 212 246 256 253 250 248 254 233 243 260 255 258 248 253 257 271 270 276 273 272 273 274 273 273 273 275 276 274 270 269 272 276 276 270 259 251 247 246 248 251 254 257 259 260 259 258 259 259 262 266 264 260
194 199 206 205 203 203 207 212 206 199 203 201 205 210 213 210 205 201 201 198 199 207 226 224 260 240 232 260 249 231 220 241 260 273 270 281 266 261 284 272 258 252 262 270 275 275 275 275 273 274 277 279 278 275 274 276 277 274 267 260 256 250 248 249 254 258 258 257 257 258 259 260 263 263
198 202 203 205 204 207 208 206 204 203 205 205 212 207 205 207 199 205 208 202 203 210 230 246 234 251 247 218 260 256 213 233 227 242 278 288 280 243 231 271 282 266 261 255 251 253 256 265 273 282 286 288 288 287 285 284 281 278 277 274 267 266 264 257 250 247 248 250 252 254 254 254 256 258
204 206 206 209 210 209 208 203 201 198 208 204 217 214 204 202 201 209 213 206 208 220 231 237 251 243 267 265 240 271 151 249 276 223 217 247 275 287 268 222 246 287 271 284 286 273 276 281 284 291 291 286 287 287 286 283 280 276 272 269 265 261 258 259 261 261 260 256 251 250 250 250 251 254
208 210 210 213 215 214 214 200 191 196 201 198 212 216 203 204 200 210 208 210 209 225 225 255 263 278 277 268 281 288 269 242 247 244 172 237 248 262 300 289 248 231 256 271 270 277 264 297 299 296 299 289 285 285 283 282 278 271 262 260 263 267 268 268 266 265 264 262 258 255 256 259 261 260
210 211 211 215 215 217 218 209 208 210 211 211 208 202 194 199 198 202 201 209 213 208 225 244 250 259 262 266 255 251 253 251 283 296 261 255 267 301 281 288 273 233 203 262 283 281 296 281 298 296 285 285 283 281 285 272 270 274 277 278 274 271 269 268 268 267 266 265 264 260 254 250 249 249
214 214 213 215 217 220 220 220 219 219 218 217 215 207 196 194 190 190 197 215 197 201 224 243 252 246 263 266 253 242 255 250 232 237 227 240 254 252 263 282 299 274 199 241 264 285 274 195 276 282 279 280 284 277 269 269 273 276 279 281 283 283 280 276 273 271 268 263 260 258 256 253 251 250
211 213 215 218 212 216 216 216 226 226 226 224 220 213 204 199 198 190 189 200 168 172 248 261 255 251 252 267 265 259 240 253 253 244 232 232 228 242 244 247 254 254 146 241 283 279 289 210 249 270 272 271 271 271 273 281 287 286 287 289 291 291 289 285 281 274 267 263 258 255 254 253 253 252
207 208 215 217 209 204 216 221 219 216 225 225 218 216 221 195 51 33 23 125 173 192 222 238 259 251 251 259 261 235 229 212 242 249 245 245 238 233 245 249 264 277 249 265 265 276 286 273 261 261 270 273 276 289 299 294 289 288 286 283 281 280 281 281 281 280 277 272 266 260 259 258 256 255
205 207 208 207 210 205 209 222 224 222 225 220 113 78 69 60 349 272 259 262 244 230 234 242 257 265 202 250 256 258 238 228 249 237 249 247 255 249 240 244 251 272 344 238 256 284 285 275 269 270 272 277 288 281 274 278 281 280 277 276 275 276 277 276 276 275 274 273 272 270 266 263 260 258
204 206 206 202 208 207 215 216 224 209 144 120 126 109 100 194 224 248 276 274 268 258 234 236 243 258 259 252 257 267 264 240 246 233 242 245 247 266 303 321 275 278 261 213 161 246 263 273 236 253 265 280 279 274 275 274 273 273 274 274 274 274 274 274 273 273 272 270 268 266 263 264 267 269
204 205 200 197 204 211 215 178 141 127 129 112 95 104 151 195 221 250 246 252 250 228 218 223 229 239 253 264 266 270 270 273 272 273 301 356 308 308 301 281 295 279 278 169 176 241 260 248 210 264 275 290 285 287 291 278 270 269 271 273 274 275 275 275 274 272 272 270 269 269 270 272 274 275
198 190 181 194 180 129 130 125 103 82 70 92 131 168 179 203 214 226 241 232 224 222 229 240 255 265 270 278 280 276 271 255 261 336 334 286 270 272 271 273 277 274 295 259 185 198 262 261 227 279 265 260 269 276 272 265 265 264 265 267 269 269 270 270 271 272 272 272 273 273 275 275 276 275
170 189 197 174 153 153 148 130 116 124 139 168 208 174 178 199 225 240 238 215 216 217 223 221 239 253 266 267 267 264 265 267 234 195 249 256 301 282 267 279 282 293 296 260 160 351 254 273 261 264 262 275 255 245 251 259 264 261 262 263 264 266 267 268 271 272 273 273 273 275 275 277 278 280
137 148 166 149 151 146 146 140 145 161 173 190 200 195 168 195 234 249 144 210 252 347 1 359 16 327 270 254 254 270 275 279 252 200 232 264 261 260 283 276 298 312 288 260 159 311 281 307 267 242 309 286 264 246 244 258 268 266 260 265 270 267 265 268 267 269 271 271 272 273 273 274 276 276
143 131 127 140 138 143 153 165 169 175 181 182 160 129 180 220 249 187 157 177 160 129 82 285 294 278 281 298 309 315 333 348 343 155 192 190 176 193 236 247 237 246 246 269 226 252 259 238 269 222 224 265 290 282 282 277 275 278 272 272 270 276 275 273 272 268 265 266 267 267 269 270 269 270
171 154 149 155 156 157 165 167 172 178 180 153 136 151 175 215 193 155 165 183 98 87 12 329 320 317 323 325 334 332 327 300 192 142 183 170 180 189 219 246 253 252 257 260 264 215 251 241 270 276 272 208 245 285 273 280 273 275 276 267 271 275 274 273 273 277 275 270 266 265 266 264 263 258
160 156 165 173 181 169 165 173 177 166 142 131 145 204 200 157 157 174 161 130 101 78 27 332 321 313 318 319 317 304 291 240 217 229 239 237 230 224 219 222 240 258 267 263 238 204 232 275 248 259 266 272 275 262 290 285 278 273 269 266 257 263 268 275 275 274 274 273 276 268 263 261 261 262
173 162 163 166 171 180 173 147 140 145 156 166 212 189 165 170 182 153 124 122 97 73 322 311 300 299 292 289 280 294 294 259 240 244 244 244 235 241 243 233 220 232 255 273 278 253 205 243 257 255 270 271 285 291 284 284 288 282 275 268 267 264 260 258 265 269 272 273 272 271 269 267 267 266
145 146 152 154 169 162 141 151 157 158 169 190 188 177 183 179 166 137 136 129 140 159 28 305 290 282 273 258 271 263 248 241 247 266 279 279 273 286 290 280 266 248 257 264 273 274 241 245 274 269 248 260 273 281 284 274 274 278 284 281 272 272 270 258 264 270 272 274 275 277 278 279 273 274
144 133 131 146 163 165 171 170 157 154 188 198 184 189 186 176 143 145 153 165 125 142 256 251 256 266 258 239 246 257 255 267 308 304 294 296 303 293 278 273 271 274 276 273 272 275 266 249 259 273 279 256 247 258 260 271 280 285 281 290 293 278 281 277 269 270 274 272 272 271 270 273 276 271
132 140 150 154 155 151 151 145 175 199 200 191 183 170 171 157 164 161 151 143 163 216 227 228 235 241 264 297 274 277 279 301 275 285 295 305 303 302 303 318 304 290 277 275 275 272 269 258 252 255 266 272 256 258 263 274 282 278 283 280 278 288 268 265 264 269 277 281 281 280 276 271 270 275
104 113 119 141 158 167 170 172 166 154 142 131 166 181 189 190 189 174 180 184 195 216 222 236 250 281 279 277 290 256 234 270 284 273 273 287 277 284 286 280 287 297 296 298 289 276 270 265 263 250 256 269 274 263 265 261 273 283 284 282 288 287 293 291 286 275 274 281 285 283 281 278 275 268
121 119 112 109 117 120 132 120 116 107 122 162 167 198 200 196 185 198 210 228 202 230 231 275 284 280 279 280 240 252 285 274 276 288 288 261 283 285 297 311 292 295 304 303 300 292 286 275 267 264 242 249 267 282 287 277 273 276 283 286 285 282 283 286 289 289 285 291 291 289 286 284 284 284
107 114 115 120 126 136 144 162 160 165 162 197 206 209 211 201 185 178 178 221 237 233 228 249 255 266 263 247 257 272 285 277 277 283 289 278 247 289 269 271 289 303 306 307 304 303 304 305 297 279 262 264 249 256 272 294 284 276 281 286 293 290 290 287 287 289 295 294 291 294 293 290 284 280
129 138 142 157 153 154 162 173 180 191 199 212 218 227 212 193 190 204 209 219 233 226 226 235 235 236 212 231 251 260 263 283 278 274 248 277 294 285 301 307 298 292 288 292 302 303 311 309 316 319 316 302 270 240 237 251 269 282 279 287 287 288 286 289 288 292 296 292 295 294 289 290 286 277
135 145 153 157 161 168 171 182 194 197 198 214 220 234 204 192 201 208 212 221 214 223 223 206 194 195 188 223 232 238 246 251 277 305 299 291 312 307 301 304 299 302 305 307 306 305 314 311 322 326 323 325 329 308 224 221 262 263 279 278 275 281 291 295 299 303 302 299 294 287 292 291 290 290
143 152 153 161 177 172 181 205 202 194 206 212 216 220 208 213 201 195 218 210 185 184 169 174 203 200 211 218 226 225 234 243 277 293 315 325 320 308 305 295 294 300 305 301 299 301 308 306 320 324 320 318 324 317 320 238 206 251 285 296 300 298 299 302 304 305 306 302 297 292 291 295 297 299
148 159 161 174 179 173 198 212 208 210 214 221 215 206 211 220 199 185 173 137 152 151 170 165 193 200 201 214 221 224 220 273 313 319 313 307 297 297 320 318 314 308 311 301 298 297 306 307 311 312 309 314 314 309 293 305 292 237 254 289 299 301 304 310 312 307 300 298 297 294 289 295 295 296
161 158 173 177 176 187 182 140 126 128 125 127 129 137 136 121 111 121 124 119 128 136 154 172 190 195 219 213 209 288 304 301 300 321 300 294 324 330 314 304 305 306 303 299 303 299 303 298 296 292 291 287 301 299 302 304 313 303 229 276 299 304 310 311 311 309 307 302 295 299 299 293 293 297
151 165 167 167 150 134 134 150 145 136 129 124 125 125 120 116 114 115 118 132 147 165 176 183 207 218 234 249 218 213 299 337 344 304 292 307 317 311 311 311 311 305 315 308 307 306 310 305 294 290 276 282 279 276 275 287 288 292 307 303 295 297 297 308 307 307 308 311 309 302 289 282 281 286
163 161 157 139 146 143 141 145 138 137 132 135 135 135 131 135 138 132 138 155 178 198 188 209 213 221 241 229 236 251 82 141 230 252 284 314 315 310 305 306 300 299 311 306 311 309 310 299 298 296 297 280 267 265 263 260 266 287 288 292 279 256 276 311 311 311 310 308 310 311 313 316 313 310
159 145 149 142 142 143 141 141 139 134 133 139 136 137 132 136 139 161 171 186 189 194 213 221 214 204 233 235 181 153 301 274 273 305 328 327 319 313 308 313 309 306 307 302 301 304 301 294 294 298 297 283 280 289 316 327 313 310 311 305 297 285 286 300 301 306 303 308 311 312 315 320 317 316
157 149 149 147 145 152 142 140 144 141 146 147 139 133 137 146 163 173 180 195 201 207 221 238 217 216 219 222 219 153 183 236 317 326 325 321 314 314 311 311 303 300 305 298 298 291 291 296 304 309 305 312 319 345 318 305 302 303 299 303 309 315 321 315 308 300 296 306 317 320 322 317 314 304
151 148 152 160 151 152 152 153 156 152 155 146 136 136 138 150 157 167 185 196 210 217 224 229 223 167 206 217 201 195 158 7 339 328 317 311 308 302 303 298 289 286 281 284 286 289 296 304 311 320 320 326 299 311 301 300 292 290 297 312 319 320 316 315 312 309 309 310 310 314 318 319 323 319
157 152 158 160 159 162 164 160 158 156 152 144 138 138 145 154 171 191 193 197 196 218 219 209 163 147 167 210 208 174 77 349 333 335 312 301 298 289 285 294 299 300 299 298 307 309 311 315 314 323 322 318 313 316 308 310 307 306 310 309 313 322 323 325 319 310 305 308 315 321 323 322 315 306
158 159 159 167 165 166 165 160 155 155 137 131 134 143 155 159 175 195 209 217 227 202 169 159 140 157 186 188 101 46 323 315 351 321 306 304 302 300 305 305 306 306 303 302 311 310 317 314 309 317 311 314 316 300 296 299 301 308 314 324 328 327 324 326 329 327 328 325 331 332 330 330 329 322